This demonstration page uses our WeatherBlox Daily Observations layout. Learn more.

Left ArrowRight Arrow

Hourly Observations for January 4, 2017

Temp ( °F °C ) Dew Point ( °F °C ) Humidity (%) Winds ( mph kmh ) Pressure ( in mb ) Visibility ( mi km ) Precip ( " mm )
12:58 am 00:58 Clear 8 -13.3 -1 -18.1 67 67 NNW 12 19 30.40 1030 10 16 0.00 0.00
1:58 am 01:58 Clear 7 -13.8 -1 -18.2 70 70 NW 8 13 30.41 1030 10 16 0.00 0.00
2:58 am 02:58 Clear 6 -14.2 -1 -18.4 71 71 NNW 9 15 30.43 1031 10 16 0.00 0.00
3:58 am 03:58 Clear 7 -13.8 0 -17.9 71 71 NW 10 17 30.42 1030 10 16 0.00 0.00
4:58 am 04:58 Mostly Cloudy 8 -13.4 -1 -18.3 67 67 NW 12 19 30.40 1030 10 16 0.00 0.00
5:58 am 05:58 Cloudy 8 -13.3 -2 -18.8 64 64 NW 12 19 30.41 1030 10 16 0.00 0.00
6:58 am 06:58 Partly Cloudy 9 -13 -1 -18.3 65 65 NW 13 20 30.42 1030 10 16 0.00 0.00
7:58 am 07:58 Partly Cloudy 9 -13 -1 -18.2 65 65 NW 10 17 30.42 1030 10 16 0.00 0.00
8:58 am 08:58 Cloudy 9 -12.9 -1 -18.3 64 64 NW 14 22 30.42 1030 10 16 0.00 0.00
9:58 am 09:58 Mostly Cloudy 10 -12.3 -2 -18.8 59 59 NW 10 17 30.42 1030 10 16 0.00 0.00
10:58 am 10:58 Mostly Cloudy 11 -11.8 -2 -19 55 55 NNW 9 15 30.41 1030 10 16 0.00 0.00
11:58 am 11:58 Cloudy 12 -11.3 -2 -19.1 53 53 NW 10 17 30.38 1029 10 16 0.00 0.00
12:58 pm 12:58 Mostly Cloudy 13 -10.7 -3 -19.2 50 50 WNW 8 13 30.34 1027 10 16 0.00 0.00
1:58 pm 13:58 Cloudy 13 -10.8 -4 -19.8 48 48 NW 6 9 30.31 1026 10 16 0.00 0.00
2:58 pm 14:58 Cloudy 13 -10.5 -3 -19.5 48 48 NNW 7 11 30.28 1025 10 16 0.00 0.00
3:58 pm 15:58 Cloudy 13 -10.8 -3 -19.6 49 49 NNE 7 11 30.28 1025 10 16 0.00 0.00
4:15 pm 16:15 Cloudy with Light Snow 12 -11 -4 -20 48 48 N 6 9 30.30 1026 10 16 0.00 0.00
5:00 pm 17:00 Cloudy with Light Snow 12 -11 1 -17 62 62 Calm 30.33 1027 3 5 0.00 0.00
6:58 pm 18:58 Cloudy with Light Snow 10 -12.2 6 -14.6 83 83 N 6 9 30.27 1025 3 5 0.01 0.25
7:58 pm 19:58 Cloudy with Light Snow 10 -12.3 7 -14 87 87 N 5 7 30.28 1025 2 3 0.00 0.00
8:58 pm 20:58 Cloudy with Light Snow 10 -12.2 7 -14.1 86 86 NW 6 9 30.26 1025 2 3 0.00 0.00
9:58 pm 21:58 Cloudy with Light Snow 10 -12.1 7 -13.7 88 88 NW 9 15 30.28 1025 2 3 0.01 0.25
10:58 pm 22:58 Cloudy with Light Snow 10 -12.2 7 -13.8 88 88 NW 9 15 30.27 1025 3 4 0.00 0.00
11:58 pm 23:58 Mostly Cloudy with Light Snow 8 -13.4 4 -15.3 86 86 NW 3 6 30.27 1025 10 16 0.00 0.00

Powered by AerisWeather